TimeCST,TemperatureF,Dew PointF,Humidity,Sea Level PressureIn,VisibilityMPH,Wind Direction,Wind SpeedMPH,Gust SpeedMPH,PrecipitationIn,Events,Conditions,WindDirDegrees,DateUTC
12:28 AM,28.4,24.8,86,29.83,10.0,NNE,11.5,-,N/A,,Scattered Clouds,20,2014-02-01 06:28:00
12:58 AM,28.4,25.5,89,29.86,10.0,NNE,13.8,-,N/A,,Mostly Cloudy,20,2014-02-01 06:58:00
1:58 AM,27.9,25.3,90,29.86,10.0,North,11.5,-,N/A,,Mostly Cloudy,10,2014-02-01 07:58:00
2:03 AM,28.4,24.8,86,29.83,10.0,North,12.7,-,N/A,,Clear,10,2014-02-01 08:03:00
2:58 AM,27.5,25.0,90,29.86,10.0,North,12.7,-,N/A,,Clear,10,2014-02-01 08:58:00
3:58 AM,27.5,24.6,89,29.88,10.0,North,8.1,-,N/A,,Clear,10,2014-02-01 09:58:00
4:58 AM,27.5,23.5,85,29.89,10.0,North,11.5,-,N/A,,Clear,360,2014-02-01 10:58:00
5:58 AM,28.2,23.4,82,29.90,10.0,North,11.5,-,N/A,,Mostly Cloudy,10,2014-02-01 11:58:00
6:58 AM,28.6,23.0,80,29.92,10.0,North,8.1,-,N/A,,Mostly Cloudy,10,2014-02-01 12:58:00
7:58 AM,28.9,22.8,78,29.95,10.0,North,9.2,-,N/A,,Mostly Cloudy,360,2014-02-01 13:58:00
8:58 AM,30.6,22.3,71,29.99,10.0,North,6.9,-,N/A,,Overcast,360,2014-02-01 14:58:00
9:58 AM,32.4,22.6,67,30.00,10.0,North,6.9,-,N/A,,Partly Cloudy,10,2014-02-01 15:58:00
10:58 AM,34.3,23.0,63,30.01,10.0,NNE,9.2,-,N/A,,Partly Cloudy,20,2014-02-01 16:58:00
11:58 AM,35.8,23.2,60,30.00,10.0,NNE,12.7,-,N/A,,Partly Cloudy,20,2014-02-01 17:58:00
12:58 PM,39.4,23.0,52,29.97,10.0,NE,8.1,-,N/A,,Clear,40,2014-02-01 18:58:00
1:58 PM,41.0,22.3,47,29.96,10.0,NNE,12.7,-,N/A,,Clear,30,2014-02-01 19:58:00
2:58 PM,42.3,22.6,46,29.96,10.0,North,15.0,-,N/A,,Clear,10,2014-02-01 20:58:00
3:58 PM,42.4,23.2,47,29.96,10.0,NNE,12.7,-,N/A,,Clear,20,2014-02-01 21:58:00
4:58 PM,40.8,23.2,50,29.99,10.0,NNE,13.8,-,N/A,,Clear,30,2014-02-01 22:58:00
5:58 PM,36.9,22.8,57,30.02,10.0,North,16.1,-,N/A,,Clear,10,2014-02-01 23:58:00
6:58 PM,34.5,22.5,61,30.06,10.0,North,18.4,-,N/A,,Clear,10,2014-02-02 00:58:00
7:58 PM,32.0,23.2,70,30.11,10.0,NNE,17.3,24.2,N/A,,Partly Cloudy,20,2014-02-02 01:58:00
8:08 PM,32.0,23.0,69,30.08,10.0,NNE,16.1,-,N/A,,Mostly Cloudy,20,2014-02-02 02:08:00
8:58 PM,32.5,24.8,73,30.14,10.0,NNE,20.7,-,N/A,,Overcast,20,2014-02-02 02:58:00
9:58 PM,32.5,24.3,72,30.17,10.0,NNE,12.7,-,N/A,,Overcast,20,2014-02-02 03:58:00
10:58 PM,32.5,23.2,68,30.18,10.0,NNE,15.0,-,N/A,,Overcast,30,2014-02-02 04:58:00
11:58 PM,32.2,22.5,67,30.21,10.0,NNE,19.6,-,N/A,,Overcast,20,2014-02-02 05:58:00